Location: Rowland
(34.5359°N, 79.2929°W)
Time: 15:09:08
(UTC+00:00)

SR - Pass Details

Date: 10 October 2022
Orbit: 577 x 875 km, 66.7° (Epoch: 28 November)

Event Time Altitude Azimuth Distance (km) Brightness Sun altitude
Rises 07:49:51 0° 353° (N) 3,288 - -42.8°
Exits shadow 07:54:17 - 27° (NNE) 2,320 ? -42.0°
Reaches altitude 10° 07:54:54 10° 34° (NE) 2,260 ? -41.9°
Maximum altitude 07:55:45 10° 43° (NE) 2,216 ? -41.7°
Drops below altitude 10° 07:56:37 10° 53° (NE) 2,224 ? -41.6°
Sets 08:01:17 0° 95° (E) 3,040 ? -40.7°
